Regional Weather Roundup
Issued by NWS

Home | Current Version | Previous Version | Text Only | Print | Product List | Glossary Off
Versions: 1 2 3 4 5 6 7 8 9 10 11 12 13 14 15 16 17 18 19 20 21 22 23 24 25 26 27 28 29 30 31 32 33 34 35 36 37 38 39 40 41 42 43 44 45 46 47 48 49 50

000
ASUS44 KMEG 252310
RWRTN
TENNESSEE HOURLY STATE WEATHER ROUNDUP
NATIONAL WEATHER SERVICE MEMPHIS TN
600 PM CDT SAT APR 25 2015

TNZ002-004-019-021-049-052-054-088>092-260000-
WEST TENNESSEE

CITY           SKY/WX    TMP DP  RH WIND       PRES   REMARKS
MEMPHIS INTL   MOSUNNY   81  59  47 SW15G22   29.57S
NWS MEMPHIS      N/A     81 N/A N/A MISG        N/A
JACKSON        SUNNY     81  53  37 SW17G25   29.53S
DYERSBURG      SUNNY     79  54  41 SW17G24   29.53R
UNION CITY     SUNNY     77  32  19 SW14      29.49S
PARIS          SUNNY     77  55  47 SW16      29.50S
LEXINGTON      SUNNY     81  50  34 SW18      29.51F
SAVANNAH       SUNNY     81  32  17 SW16      29.55F
$$

TNZ008-025-027-028-033-062-065-066-260000-
NORTH MIDDLE TENNESSEE

CITY           SKY/WX    TMP DP  RH WIND       PRES   REMARKS
NASHVILLE      MOSUNNY   82  52  35 VRB7G29   29.49F
CLARKSVILLE    SUNNY     80  52  37 W20G25    29.46F
SMYRNA         SUNNY     81  58  45 SW13G24   29.51F
COOKEVILLE     SUNNY     79  61  53 SW14      29.53F
CROSSVILLE     MOSUNNY   75  51  43 SW10G25   29.58F
$$

TNZ061-075-076-078-094-096-097-260000-
SOUTH MIDDLE TENNESSEE

CITY           SKY/WX    TMP DP  RH WIND       PRES   REMARKS
FAYETTEVILLE   MOSUNNY   73  64  73 SW12      29.59F
TULLAHOMA      SUNNY     73  61  64 SW13      29.59F
WINCHESTER     MOSUNNY   75  64  69 SW10      29.60F
MCMINNVILLE    SUNNY     75  63  64 SW16      29.56F
COLUMBIA       SUNNY     79  32  18 S15       29.52F
SHELBYVILLE    SUNNY     75  64  69 S17       29.57F
$$

TNZ017-018-042-046-047-260000-
NORTHEAST TENNESSEE

CITY           SKY/WX    TMP DP  RH WIND       PRES   REMARKS
TRI CITIES     CLOUDY    71  57  61 SW10      29.57F
ELIZABETHTON   CLEAR     70  55  60 W7        29.57F
$$

TNZ012-013-036-069-073-074-260000-
CENTRAL EAST TENNESSEE

CITY           SKY/WX    TMP DP  RH WIND       PRES   REMARKS
KNOXVILLE      CLOUDY    75  60  59 SW23G30   29.55F
OAK RIDGE      PTSUNNY   76  63  64 VRB7      29.56F
GATLINBURG     CLEAR     75  54  46 SW12      29.54F
MORRISTOWN     CLEAR     73  61  64 W12       29.56F
$$

TNZ083-085-099-260000-
SOUTHEAST TENNESSEE

CITY           SKY/WX    TMP DP  RH WIND       PRES   REMARKS
CHATTANOOGA    CLOUDY    75  63  66 SW14G20   29.60F
$$

SKY/WX REPORTED AS FAIR MEANS FEW OR NO CLOUDS BELOW
12 THOUSAND FEET.




USA.gov is the U.S. government's official web portal to all federal, state and local government web resources and services.